Weather History for Victoria, TX

Change the Weather History Date:

Sunday, August 18, 2013

  Actual Average Record
Temperature  
Mean Temperature 85 °F 84 °F  
Max Temperature 100 °F 95 °F 104 °F (1917)
Min Temperature 70 °F 74 °F 65 °F (1992)
Degree Days  
Heating Degree Days 0 0  
Month to date heating degree days 0 0  
Since 1 June heating degree days 0 0  
Since 1 July heating degree days 0 0  
Cooling Degree Days 20 20  
Month to date cooling degree days 403 360  
Year to date cooling degree days 2240 2113  
Since 1 June cooling degree days 1606 1454  
Growing Degree Days 35 (Base 50)    
Moisture  
Dew Point 69 °F    
Average Humidity 65    
Maximum Humidity 100    
Minimum Humidity 29    
Precipitation  
Precipitation 0.00 in 0.09 in 1.66 in (1973)
Month to date precipitation 0.33 1.43  
Year to date precipitation 13.42 25.45  
Snow  
Snow 0.00 in - - ()
Month to date snowfall 0.0  
Since 1 June snowfall 0.0  
Since 1 July snowfall 0.0  
Snow Depth 0.00 in    
Sea Level Pressure  
Sea Level Pressure 29.99 in    
Wind  
Wind Speed 7 mph (NE)    
Max Wind Speed 20 mph    
Max Gust Speed 25 mph    
Visibility 7 miles    
Events      
T = Trace of Precipitation, MM = Missing Value Source: NWS Daily Summary

Daily Weather History Graph

Daily Weather History Graph

Search for Another Location

Airport:

Trip Planner

Search our weather history database for the weather conditions in past years. The results will help you decide how hot, cold, wet, or windy it might be!

Date:

Astronomy

Aug. 18, 2013 Rise Set
Actual Time 6:58 AM CDT 8:04 PM CDT
Civil Twilight 6:33 AM CDT 8:28 PM CDT
Nautical Twilight 6:04 AM CDT 8:57 PM CDT
Astronomical Twilight 5:34 AM CDT 9:27 PM CDT
Moon 6:06 PM CDT (8/18) 4:15 AM CDT (8/18)
Length of Visible Light 13h 54m
Length of Day
13h 05m
Waxing Gibbous, 92% of the Moon is Illuminated
Aug 18
Waxing Gibbous
Aug 20
Full
Aug 28
Last Quarter
Sep 5
New
Sep 12
First Quarter

Hourly Weather History & Observations

Time (CDT) Temp. Heat Index Dew Point Humidity Pressure Visibility Wind Dir Wind Speed Gust Speed Precip Events Conditions
12:51 AM 77.0 °F - 72.0 °F 84% 29.98 in 9.0 mi Calm Calm - N/A   Clear
1:51 AM 77.0 °F - 72.0 °F 84% 29.97 in 8.0 mi Calm Calm - N/A   Clear
2:51 AM 72.0 °F - 70.0 °F 93% 29.97 in 4.0 mi West 3.5 mph - N/A   Clear
3:51 AM 73.0 °F - 71.1 °F 93% 29.97 in 3.0 mi North 4.6 mph - N/A   Clear
4:51 AM 73.0 °F - 71.1 °F 93% 29.97 in 3.0 mi NNW 3.5 mph - N/A   Clear
5:51 AM 72.0 °F - 71.1 °F 97% 29.98 in 3.0 mi North 3.5 mph - N/A   Clear
6:42 AM 71.6 °F - 71.6 °F 100% 29.99 in 2.5 mi North 3.5 mph - N/A   Clear
6:51 AM 72.0 °F - 71.1 °F 97% 29.99 in 2.5 mi North 3.5 mph - N/A   Clear
7:07 AM 71.6 °F - 69.8 °F 94% 30.00 in 1.5 mi North 3.5 mph - N/A   Clear
7:51 AM 75.0 °F - 73.0 °F 94% 30.01 in 1.8 mi North 4.6 mph - N/A   Clear
7:58 AM 75.2 °F - 73.4 °F 94% 30.01 in 2.0 mi North 3.5 mph - N/A   Clear
8:25 AM 78.8 °F - 73.4 °F 83% 30.01 in 3.0 mi NNE 3.5 mph - N/A   Clear
8:51 AM 82.0 °F 88.6 °F 75.0 °F 79% 30.01 in 6.0 mi North 3.5 mph - N/A   Haze
9:51 AM 87.1 °F 93.6 °F 72.0 °F 61% 30.01 in 10.0 mi NNW 3.5 mph - N/A   Clear
10:51 AM 90.0 °F 94.5 °F 69.1 °F 50% 30.02 in 10.0 mi Variable 4.6 mph - N/A   Mostly Cloudy
11:51 AM 93.9 °F 97.0 °F 66.0 °F 40% 30.01 in 10.0 mi North 8.1 mph - N/A   Mostly Cloudy
12:51 PM 98.1 °F 100.7 °F 64.0 °F 33% 30.01 in 10.0 mi North 10.4 mph - N/A   Scattered Clouds
1:51 PM 97.0 °F 97.8 °F 62.1 °F 31% 30.00 in 10.0 mi Variable 5.8 mph - N/A   Scattered Clouds
2:51 PM 99.0 °F 99.5 °F 60.1 °F 28% 29.98 in 10.0 mi East 10.4 mph - N/A   Scattered Clouds
3:51 PM 99.0 °F 99.5 °F 60.1 °F 28% 29.96 in 10.0 mi East 9.2 mph 19.6 mph N/A   Clear
4:51 PM 98.1 °F 99.6 °F 63.0 °F 31% 29.96 in 10.0 mi ESE 16.1 mph 24.2 mph N/A   Clear
5:51 PM 95.0 °F 97.0 °F 64.0 °F 36% 29.96 in 10.0 mi SSE 12.7 mph 23.0 mph N/A   Clear
6:51 PM 91.0 °F 94.3 °F 66.9 °F 45% 29.96 in 10.0 mi SE 16.1 mph - N/A   Clear
7:51 PM 87.1 °F 90.6 °F 68.0 °F 53% 29.96 in 10.0 mi SE 10.4 mph - N/A   Clear
8:51 PM 84.0 °F 87.8 °F 69.1 °F 61% 29.96 in 10.0 mi SE 11.5 mph - N/A   Clear
9:51 PM 81.0 °F 84.4 °F 70.0 °F 69% 29.98 in 10.0 mi South 5.8 mph - N/A   Clear
10:51 PM 80.1 °F 83.6 °F 71.1 °F 74% 29.98 in 10.0 mi SSE 4.6 mph - N/A   Clear
11:51 PM 79.0 °F - 71.1 °F 77% 29.98 in 9.0 mi South 3.5 mph - N/A   Clear